[[{"header":{"parameterUnit":"m.s-1","parameterCategory":1,"la1":30.2991,"la2":30.254,"lo1":-89.0895,"lo2":-89.0444,"dy":0.0017,"dx":0.0017,"nx":28,"ny":28,"refTime":"2023-10-22T21:00:00:Z","depth":0,"parameterNumber":2,"parameterNumberName":"U-component_of_WINDS"},"data":[0,0,0,0,0,0,0,0,0,0,0,0,0,0,0,0,0,0,0,0,0,0,0,0,0,0,0,0,0,0,0,0,0,0,0,0,0,0,0,0,0,0,0,0,0,0,0,0,0,0,0,0,0,0,0,0,0,0,-0.5195,-0.5195,0,-0.5163,-0.5163,-0.5162,-0.5157,-0.5157,-0.5157,-0.5158,-0.5121,-0.512,-0.5119,0,0,0,0,0,0,0,0,0,0,0,0,0,-0.5249,-0.5248,-0.5195,-0.5195,-0.5194,-0.5163,-0.5163,-0.5162,-0.5157,-0.5157,-0.5157,-0.5158,-0.5122,-0.512,-0.5119,0,0,0,0,0,0,0,0,0,0,0,0,0,-0.5222,-0.5248,-0.5195,-0.5188,-0.5187,-0.5163,-0.5162,-0.5162,-0.5157,-0.5157,-0.5158,-0.5158,-0.5122,-0.512,-0.5118,-0.5098,0,0,-0.5113,-0.5112,0,0,0,0,0,0,0,0,-0.5223,-0.522,-0.5189,-0.5188,-0.5187,-0.5164,-0.5168,-0.514,-0.5157,-0.5168,-0.5158,-0.5158,-0.5135,-0.5132,-0.5125,-0.5097,-0.5095,-0.5113,-0.5112,-0.5111,-0.511,0,0,0,0,0,0,0,-0.5225,-0.5221,-0.5182,-0.5189,-0.5188,-0.5185,-0.5182,-0.5163,-0.5149,-0.5167,-0.5167,-0.5163,-0.5134,-0.5127,-0.5124,-0.5095,-0.5113,-0.5111,-0.511,-0.5109,-0.5048,-0.5047,0,0,0,0,0,0,-0.5229,-0.5223,-0.5183,-0.5181,-0.5207,-0.5184,-0.518,-0.5171,-0.515,-0.5147,-0.5163,-0.5163,-0.513,-0.5126,-0.5123,-0.5097,-0.5111,-0.5109,-0.5108,-0.5048,-0.5048,-0.5047,0,0,0,0,0,0,-0.523,-0.5225,-0.5185,-0.5202,-0.5197,-0.5183,-0.5173,-0.517,-0.5163,-0.5146,-0.5144,-0.5158,-0.513,-0.5125,-0.5105,-0.5096,-0.5108,-0.5106,-0.5049,-0.5048,-0.5047,-0.5047,0,0,0,0,0,0,-0.5232,-0.5226,-0.5219,-0.5202,-0.5196,-0.5168,-0.5172,-0.5169,-0.516,-0.516,-0.5141,-0.5138,-0.513,-0.5107,-0.5103,-0.5094,-0.5105,-0.5049,-0.5048,-0.5048,-0.5047,-0.5046,-0.5045,0,0,0,0,0,-0.5234,-0.5219,-0.5218,-0.5214,-0.5187,-0.5167,-0.5164,-0.5156,-0.5159,-0.5152,-0.5141,-0.5139,-0.5098,-0.5105,-0.51,-0.509,-0.505,-0.5049,-0.5048,-0.5048,-0.5046,-0.5045,0,0,0,0,0,0,-0.5234,-0.5217,-0.5216,-0.5196,-0.5183,-0.5167,-0.5156,-0.5154,-0.5139,-0.514,-0.513,-0.5125,-0.5105,-0.5096,-0.5104,-0.507,-0.5074,-0.5072,-0.5076,-0.5075,-0.5073,-0.5075,-0.5103,0,0,0,0,0,-0.5232,-0.5219,-0.5204,-0.5188,-0.5182,-0.517,-0.5162,-0.5157,-0.5143,-0.5137,-0.5125,-0.5111,-0.5095,-0.5084,-0.5069,-0.5047,-0.5042,-0.5037,-0.5036,-0.5035,-0.5033,-0.502,-0.5017,-0.5043,-0.5043,-0.5043,0,0,-0.5227,-0.5216,-0.5208,-0.5188,-0.5177,-0.5163,-0.5166,-0.515,-0.5139,-0.5134,-0.5114,-0.5105,-0.5088,-0.5067,-0.5056,-0.5058,-0.5025,-0.5033,-0.5033,-0.5031,-0.5018,-0.5016,-0.5013,-0.5042,-0.5043,-0.5043,0,0,-0.5211,-0.5202,-0.5187,-0.5177,-0.5162,-0.5155,-0.5151,-0.5135,-0.5129,-0.5109,-0.5105,-0.5091,-0.5064,-0.5052,-0.5043,-0.5023,-0.502,-0.5018,-0.5011,-0.4998,-0.4996,-0.4994,-0.4986,-0.4984,-0.5016,-0.5016,-0.5016,0,-0.5206,-0.5186,-0.5179,-0.5164,-0.5155,-0.5152,-0.5136,-0.5126,-0.5106,-0.5099,-0.5102,-0.5068,-0.5057,-0.5032,-0.5027,-0.502,-0.5015,-0.502,-0.4997,-0.4995,-0.4993,-0.4985,-0.4983,-0.5016,-0.5016,-0.5016,-0.5016,0,-0.518,-0.5166,-0.5156,-0.5138,-0.5128,-0.5112,-0.5103,-0.5093,-0.5089,-0.5081,-0.5061,-0.5047,-0.5029,-0.5023,-0.5018,-0.4997,-0.4999,-0.5,-0.5004,-0.4991,-0.4983,-0.498,-0.5016,-0.5016,-0.5016,-0.5016,0,0,-0.5162,-0.5142,-0.5138,-0.513,-0.5114,-0.5102,-0.5086,-0.507,-0.5061,-0.5047,-0.5033,-0.5011,-0.5012,-0.5001,-0.4995,-0.4984,-0.4969,-0.4986,-0.4986,-0.4983,-0.4944,-0.4942,-0.4939,-0.4967,-0.4967,-0.4966,-0.4945,0,-0.5143,-0.5116,-0.511,-0.5087,-0.5073,-0.507,-0.5056,-0.5044,-0.5037,-0.5023,-0.5014,-0.4998,-0.5001,-0.4994,-0.4984,-0.4973,-0.496,-0.4975,-0.4952,-0.4952,-0.4956,-0.4935,-0.4934,-0.4914,-0.4942,-0.4941,-0.4941,0,-0.5117,-0.5104,-0.508,-0.5065,-0.5059,-0.5047,-0.5031,-0.5019,-0.5005,-0.5,-0.4988,-0.4984,-0.4967,-0.4973,-0.4948,-0.4958,-0.4949,-0.4942,-0.4941,-0.4938,-0.4945,-0.493,-0.4907,-0.4904,-0.4936,-0.4937,-0.4937,0,-0.5105,-0.5082,-0.5064,-0.5057,-0.504,-0.5032,-0.5024,-0.5011,-0.5001,-0.4987,-0.498,-0.4964,-0.4954,-0.4942,-0.4933,-0.4938,-0.4908,-0.4914,-0.4902,-0.4903,-0.4895,-0.4895,-0.487,-0.4891,-0.4891,-0.4891,-0.4892,0,-0.5083,-0.5068,-0.5058,-0.5047,-0.503,-0.5023,-0.5006,-0.4998,-0.4986,-0.4973,-0.4969,-0.4956,-0.4946,-0.4932,-0.4925,-0.4905,-0.4901,-0.4895,-0.4893,-0.4895,-0.4895,-0.4887,-0.4888,-0.4891,-0.4891,-0.4891,-0.4891,0,-0.5066,-0.5059,-0.5039,-0.5026,-0.5022,-0.5009,-0.4997,-0.4985,-0.4979,-0.4961,-0.4957,-0.4945,-0.4928,-0.4919,-0.4896,-0.4892,-0.4869,-0.4868,-0.4874,-0.4873,-0.4862,-0.4862,-0.4829,-0.4824,-0.485,-0.485,-0.485,0,-0.5052,-0.5041,-0.5026,-0.5017,-0.501,-0.4996,-0.4986,-0.498,-0.497,-0.4953,-0.4944,-0.4927,-0.4912,-0.4885,-0.4874,-0.4857,-0.4855,-0.4844,-0.4852,-0.4854,-0.4853,-0.4853,-0.4852,-0.4842,-0.4842,-0.4842,-0.4842,0,-0.5028,-0.5025,-0.5012,-0.4998,-0.4987,-0.4976,-0.4964,-0.4957,-0.4948,-0.4937,-0.492,-0.4909,-0.4887,-0.487,-0.4852,-0.4843,-0.484,-0.484,-0.4836,-0.4837,-0.484,-0.4837,-0.4869,-0.484,-0.484,-0.484,-0.484,-0.484,-0.5011,-0.5001,-0.4989,-0.4974,-0.4965,-0.4955,-0.4943,-0.4935,-0.4922,-0.4904,-0.4901,-0.4883,-0.4869,-0.4845,-0.4836,-0.4821,-0.4822,-0.4817,-0.4816,-0.4814,-0.4813,-0.4844,-0.4818,-0.4818,-0.4818,-0.4818,-0.4818,0,-0.4986,-0.4978,-0.4965,-0.495,-0.4938,-0.4939,-0.4926,-0.4916,-0.4901,-0.4889,-0.4875,-0.4856,-0.4839,-0.4827,-0.481,-0.48,-0.4798,-0.4795,-0.4795,-0.4793,-0.4813,-0.4818,-0.4797,-0.4797,-0.4797,-0.4797,-0.4797,-0.4797,-0.4971,-0.4953,-0.4949,-0.4926,-0.4919,-0.4902,-0.4895,-0.4884,-0.4875,-0.4854,-0.484,-0.4833,-0.4821,-0.4803,-0.4787,-0.4784,-0.4777,-0.4774,-0.4771,-0.479,-0.4792,-0.4794,-0.4798,-0.4773,-0.4773,-0.4752,-0.4752,-0.4751]},{"header":{"parameterUnit":"m.s-1","parameterCategory":1,"la1":30.2991,"la2":30.254,"lo1":-89.0895,"lo2":-89.0444,"dy":0.0017,"dx":0.0017,"nx":28,"ny":28,"refTime":"2023-10-22T21:00:00:Z","depth":0,"parameterNumber":3,"parameterNumberName":"V-component_of_WINDS"},"data":[0,0,0,0,0,0,0,0,0,0,0,0,0,0,0,0,0,0,0,0,0,0,0,0,0,0,0,0,0,0,0,0,0,0,0,0,0,0,0,0,0,0,0,0,0,0,0,0,0,0,0,0,0,0,0,0,0,0,0.4058,0.4057,0,0.3992,0.3991,0.399,0.3941,0.3941,0.394,0.394,0.3869,0.3868,0.3866,0,0,0,0,0,0,0,0,0,0,0,0,0,0.414,0.4139,0.4058,0.4057,0.4056,0.3992,0.3991,0.399,0.3941,0.394,0.394,0.3939,0.387,0.3868,0.3866,0,0,0,0,0,0,0,0,0,0,0,0,0,0.4092,0.4139,0.4058,0.4024,0.402,0.3992,0.3991,0.399,0.3941,0.394,0.394,0.3939,0.387,0.3868,0.3866,0.3865,0,0,0.3859,0.3858,0,0,0,0,0,0,0,0,0.4095,0.4089,0.403,0.4026,0.4022,0.3974,0.3994,0.3948,0.3941,0.3971,0.394,0.3939,0.3904,0.3899,0.3888,0.3862,0.3859,0.3859,0.3858,0.3857,0.3856,0,0,0,0,0,0,0,0.4099,0.4092,0.4032,0.4029,0.4024,0.4012,0.4004,0.3985,0.3942,0.3968,0.3965,0.3958,0.3902,0.389,0.3886,0.3858,0.3859,0.3857,0.3856,0.3855,0.3828,0.3829,0,0,0,0,0,0,0.4107,0.4095,0.4034,0.403,0.4058,0.4011,0.4002,0.399,0.3942,0.3934,0.3958,0.3956,0.3895,0.3889,0.3884,0.388,0.3857,0.3855,0.3853,0.3828,0.3828,0.3829,0,0,0,0,0,0,0.4109,0.4102,0.4036,0.4061,0.4052,0.401,0.3997,0.3989,0.3977,0.3935,0.3926,0.3955,0.3894,0.3887,0.387,0.3877,0.3854,0.3852,0.3827,0.3828,0.3829,0.3873,0,0,0,0,0,0,0.4112,0.4103,0.4103,0.4062,0.4051,0.4025,0.3997,0.3988,0.3974,0.397,0.3929,0.3921,0.3893,0.3874,0.3868,0.3874,0.385,0.3826,0.3827,0.3828,0.3871,0.3876,0.388,0,0,0,0,0,0.4115,0.4117,0.4103,0.4096,0.4049,0.4025,0.4019,0.3987,0.3975,0.3974,0.3946,0.3923,0.3877,0.3873,0.3866,0.3871,0.3826,0.3827,0.3828,0.3869,0.3875,0.3879,0,0,0,0,0,0,0.4159,0.4111,0.4095,0.4084,0.4059,0.4017,0.4015,0.3994,0.3971,0.3968,0.3929,0.392,0.3908,0.3887,0.3883,0.3868,0.3848,0.3849,0.3882,0.3887,0.3891,0.3896,0.3848,0,0,0,0,0,0.4168,0.4153,0.4111,0.4106,0.4094,0.4057,0.4045,0.4023,0.3995,0.3984,0.3956,0.3929,0.3909,0.3897,0.3876,0.3868,0.3858,0.3868,0.3872,0.3876,0.3876,0.3872,0.3876,0.3834,0.3834,0.3834,0,0,0.4184,0.4157,0.4149,0.4114,0.4092,0.4077,0.4048,0.4034,0.4022,0.3982,0.3965,0.3944,0.3911,0.39,0.3893,0.3882,0.3886,0.3878,0.3881,0.3879,0.3874,0.3878,0.3881,0.3835,0.3835,0.3834,0,0,0.4208,0.4186,0.4179,0.4158,0.4126,0.4102,0.4101,0.4062,0.4046,0.4029,0.3999,0.3985,0.3951,0.393,0.3914,0.3932,0.391,0.3927,0.3949,0.3945,0.3948,0.3951,0.3958,0.3961,0.3927,0.3927,0.3927,0,0.4233,0.4211,0.4178,0.4166,0.4151,0.4115,0.4108,0.4089,0.4052,0.4043,0.4031,0.3989,0.3965,0.3948,0.3953,0.3942,0.3939,0.3931,0.3951,0.3953,0.3955,0.3962,0.3964,0.393,0.3929,0.3929,0.3929,0,0.4244,0.4229,0.4227,0.4194,0.4179,0.4169,0.4134,0.4123,0.4103,0.408,0.4063,0.4033,0.4006,0.4001,0.3979,0.3982,0.3976,0.3958,0.3938,0.3962,0.3968,0.397,0.3933,0.3932,0.3931,0.3931,0,0,0.4292,0.4242,0.4242,0.4227,0.419,0.4177,0.4167,0.4141,0.4133,0.4109,0.4099,0.4072,0.4056,0.4038,0.4015,0.4011,0.4029,0.3994,0.3993,0.4002,0.403,0.4045,0.4048,0.4014,0.4014,0.4014,0.4034,0,0.4311,0.429,0.4261,0.425,0.4236,0.4203,0.4193,0.417,0.4148,0.4132,0.4108,0.409,0.4069,0.4059,0.4054,0.4028,0.4034,0.4026,0.4004,0.4004,0.4014,0.4051,0.4065,0.4085,0.4035,0.4036,0.4036,0,0.433,0.4309,0.4297,0.4263,0.4256,0.4248,0.4224,0.4209,0.4182,0.4166,0.4148,0.4123,0.411,0.4092,0.4074,0.4069,0.4058,0.4044,0.4044,0.4041,0.4022,0.4049,0.409,0.4093,0.4039,0.4039,0.4038,0,0.4368,0.4337,0.4326,0.4314,0.4273,0.4269,0.4251,0.4223,0.4211,0.4189,0.418,0.4157,0.4144,0.4127,0.4096,0.4086,0.4082,0.4061,0.4069,0.4069,0.4069,0.407,0.4109,0.4062,0.4062,0.4061,0.4061,0,0.4392,0.4386,0.4343,0.4336,0.4329,0.4296,0.4289,0.4269,0.4244,0.4233,0.4202,0.4192,0.4152,0.4138,0.4113,0.4103,0.4097,0.4084,0.4078,0.4087,0.4089,0.408,0.4078,0.4062,0.4062,0.4062,0.4062,0,0.4433,0.4403,0.439,0.4353,0.4344,0.434,0.4309,0.4301,0.4278,0.4265,0.4259,0.4223,0.4204,0.4172,0.4144,0.4128,0.4122,0.4111,0.4132,0.4128,0.4138,0.4138,0.4174,0.4177,0.4127,0.4127,0.4128,0,0.445,0.4445,0.4409,0.44,0.4384,0.437,0.4357,0.4324,0.4312,0.4282,0.4278,0.4257,0.4239,0.4211,0.4182,0.416,0.4149,0.4163,0.4145,0.4155,0.415,0.4151,0.4151,0.4167,0.4168,0.4168,0.4169,0,0.4485,0.4471,0.4455,0.4434,0.442,0.4402,0.4382,0.4376,0.4338,0.4327,0.4308,0.4294,0.4266,0.4246,0.4221,0.4202,0.418,0.4175,0.4175,0.4185,0.4198,0.4192,0.4143,0.4174,0.4173,0.4173,0.4173,0.4172,0.4515,0.451,0.4484,0.4467,0.4449,0.4431,0.4423,0.44,0.4384,0.436,0.4341,0.4324,0.4298,0.4262,0.4245,0.4231,0.422,0.4221,0.4222,0.4223,0.4227,0.42,0.4226,0.4226,0.4226,0.4226,0.4225,0,0.4549,0.4531,0.4516,0.449,0.4477,0.4458,0.4435,0.4425,0.4411,0.4389,0.4372,0.4352,0.4333,0.4303,0.4281,0.4276,0.4265,0.4271,0.4272,0.4268,0.4237,0.4239,0.4281,0.4281,0.4281,0.4281,0.4281,0.4281,0.4565,0.4556,0.4539,0.4521,0.4502,0.4487,0.4476,0.4459,0.4442,0.4421,0.4405,0.4386,0.4361,0.4338,0.432,0.4311,0.4305,0.4315,0.4304,0.4275,0.427,0.4265,0.4267,0.4314,0.4314,0.4336,0.4336,0.4336]}]]